Starlink 4053

operational
NORAD ID: 53536 Int'l Des: 2022-101 Owner: SPXS Country: US Constellation: starlink
LEOCIRCULAR

About Starlink 4053

Description loading...

Live Position

Loading 3D Globe...

Upcoming Passes

Altitude History

Altitude vs Time

uPlot chart will show altitude changes over time

Two-Line Element Set

1 53536U 22101K 25303.67392027 .00001287 00000-0 98965-4 0 9996
2 53536 53.2188 287.7080 0001588 87.5649 272.5525 15.08839273176675
Epoch: Oct 30, 2025 • Age: 12 hours

Current Status

Altitude 540.4 km
Velocity 7.59 km/s
Sub-Earth Point 2.12°N, 2.91°E
Launch Date Aug 19, 2022
Age 3.1 years
Type internet

Technical Details

Classification Payload
Mass 300.00 kg
Dry Mass 290.00 kg
Total Mass 300.00 kg
Length 0.20 m
Diameter 2.80 m
Span 9.00 m
Shape Box + pan
Manufacturer SPXS
Bus Type Starlink
Phase Status In Orbit
Owner/State SPXS/US

Large Constellations

Loading constellations...